Location: Bidart
(43.4376°N, 1.5913°W)
Time: 21:00:33
(UTC+00:00)

Cosmos 1408 Rocket - Pass Details

Date: 19 May 2025
Orbit: 594 x 625 km, 82.6° (Epoch: 21 June)

Event Time Altitude Azimuth Distance (km) Brightness Sun altitude
Rises 22:56:23 0° 357° (N) 2,878 8.2 -24.8°
Reaches altitude 10° 22:58:43 10° 5° (N) 1,964 7.0 -24.9°
Enters shadow 23:02:27 42° 61° (ENE) 861 4.3 -25.1°
